EW0387 Weather Reports


Display with metric or nautical units.
time (UTC)temp
F
wind
direction
speed
MPH
gust
MPH
rain 1hr
in
rain 24hr
in
rain mn
in
humidity
%
barometer
mb
20260508014517 62 281 4.0 0.0 0.00 0.00 0.00 43 1002.8
20260508013016 64 167 1.0 0.0 0.00 0.00 0.00 40 1002.1
20260508011514 64 140 1.0 0.0 0.00 0.00 0.00 35 1001.8
20260508010015 64 164 3.0 0.0 0.00 0.00 0.00 36 1001.9
20260508004513 63 252 0.0 0.0 0.00 0.00 0.00 42 1001.9
20260508003014 63 117 2.0 0.0 0.00 0.00 0.00 39 1001.4
20260508001512 64 112 0.0 0.0 0.00 0.00 0.00 38 1001.8
20260508000012 64 107 1.0 0.0 0.00 0.00 0.00 39 1001.5
20260507234511 64 121 2.0 0.0 0.00 0.00 0.00 38 1001.2
20260507233012 65 148 2.0 0.0 0.00 0.00 0.00 37 1001.4
20260507231510 66 177 1.0 0.0 0.00 0.00 0.00 35 1001.2
20260507230010 67 156 0.0 0.0 0.00 0.00 0.00 32 1001.2
20260507224515 68 84 1.0 0.0 0.00 0.00 0.00 33 1001.1
20260507223009 67 51 2.0 0.0 0.00 0.00 0.00 33 1001.1
20260507221511 67 311 5.0 0.0 0.00 0.00 0.00 33 1001.2
20260507220008 67 278 2.0 0.0 0.00 0.00 0.00 34 1001.5
20260507214520 68 308 6.0 0.0 0.00 0.00 0.00 32 1001.8
20260507213006 67 283 7.0 0.0 0.00 0.00 0.00 32 1002.0
20260507211507 69 335 8.0 0.0 0.00 0.00 0.00 31 1002.0
20260507210006 70 320 7.0 0.0 0.00 0.00 0.00 32 1002.1
20260507204506 73 275 5.0 0.0 0.00 0.00 0.00 30 1001.7
20260507203004 74 272 5.0 0.0 0.00 0.00 0.00 29 1001.7
20260507201502 73 262 5.0 0.0 0.00 0.00 0.00 30 1001.8
20260507200107 72 287 4.0 0.0 0.00 0.00 0.00 33 1002.3
20260507194556 69 137 2.0 0.0 0.00 0.00 0.00 36 1002.8
20260507193054 65 113 2.0 0.0 0.00 0.00 0.00 38 1004.4
20260507191552 63 87 2.0 0.0 0.00 0.00 0.00 39 1004.5
20260507190051 64 100 1.0 0.0 0.00 0.00 0.00 39 1004.5
20260507184548 64 216 1.0 0.0 0.00 0.00 0.00 40 1004.4
20260507183046 64 113 1.0 0.0 0.00 0.00 0.00 41 1004.9
20260507181544 63 198 1.0 0.0 0.00 0.00 0.00 39 1005.1
20260507180047 63 287 2.0 0.0 0.00 0.00 0.00 42 1005.1
20260507174545 63 282 2.0 0.0 0.00 0.00 0.00 41 1005.1
20260507173044 63 336 1.0 0.0 0.00 0.00 0.00 40 1005.1
20260507053023 35 140 4.0 0.0 0.00 0.00 0.00 87 1012.3
20260507051521 34 148 3.0 0.0 0.00 0.00 0.00 88 1012.8
20260507050020 34 137 4.0 0.0 0.00 0.00 0.00 89 1012.8
20260507044531 33 124 1.0 0.0 0.00 0.00 0.00 89 1013.3
20260507043012 34 152 1.0 0.0 0.00 0.00 0.00 88 1013.3
20260507041510 34 256 1.0 0.0 0.00 0.00 0.00 87 1013.2
20260507040008 35 258 0.0 0.0 0.00 0.00 0.00 85 1013.3